sat.trackr.live / text

‹ back to catalog

IRIDIUM 121

NORAD 42812 · 2017-039K

PAYLOAD ACTIVE UNKNOWN

§ Identity

Operator
Country
US
Launch date
2017-06-25
Launch site
AFWTR
Launch vehicle
Mass (kg)
RCS (m²)

Purposes: comms

External: N2YO · Heavens-Above · Gunter

§ Orbital elements

Epoch: 2026-09-14T14:39:42.863328Z

Period
100.40 min
Inclination
86.3982°
Eccentricity
0.0002072
Mean motion
14.34216520 rev/d
Perigee alt
776.2 km
Apogee alt
779.2 km
Semi-major
7,155.8 km
B*
-1.1542e-5
RAAN
316.3137°
Arg perigee
94.7746°
Mean anomaly
265.3686°
Rev number
48,264

§ Raw data

IRIDIUM 1211 42812U 17039K   26257.61091277 -.00000013  00000+0 -11542-4 0  99942 42812  86.3982 316.3137 0002072  94.7746 265.3686 14.34216520482645

JSON: /api/v1/satellites/42812 · /tle

For live sub-satellite position, see the globe view (requires WebGL).

§ Visibility from observer

Set your observer location to see the next 7 days of passes ≥ 10°. The values pass through the URL so the page stays shareable.

No JS? Fill the form by hand. The geolocation button needs JavaScript.